[[{"header":{"parameterUnit":"m.s-1","parameterCategory":1,"la1":30.2991,"la2":30.254,"lo1":-89.0895,"lo2":-89.0444,"dy":0.0017,"dx":0.0017,"nx":28,"ny":28,"refTime":"2025-11-06T09:00:00:Z","depth":0,"parameterNumber":2,"parameterNumberName":"U-component_of_WINDS"},"data":[0,0,0,0,0,0,0,0,0,0,0,0,0,0,0,0,0,0,0,0,0,0,0,0,0,0,0,0,0,0,0,0,0,0,0,0,0,0,0,0,0,0,0,0,0,0,0,0,0,0,0,0,0,0,0,0,0,0,-2.8738,-2.8739,0,-2.8786,-2.8787,-2.8788,-2.8707,-2.8704,-2.8702,-2.8699,-2.8749,-2.8753,-2.8756,0,0,0,0,0,0,0,0,0,0,0,0,0,-2.8578,-2.8582,-2.8738,-2.8739,-2.8739,-2.8786,-2.8787,-2.8788,-2.8708,-2.8704,-2.8701,-2.8698,-2.8748,-2.8752,-2.8757,0,0,0,0,0,0,0,0,0,0,0,0,0,-2.8639,-2.8583,-2.8738,-2.8705,-2.8702,-2.8786,-2.8787,-2.8788,-2.8708,-2.8704,-2.87,-2.8696,-2.8746,-2.8752,-2.8757,-2.8876,0,0,-2.8775,-2.8778,0,0,0,0,0,0,0,0,-2.8636,-2.8645,-2.8709,-2.8707,-2.8705,-2.8737,-2.8749,-2.8817,-2.8709,-2.8706,-2.8699,-2.8694,-2.8748,-2.8753,-2.8772,-2.8878,-2.888,-2.8776,-2.8779,-2.8782,-2.8783,0,0,0,0,0,0,0,-2.8632,-2.8643,-2.8757,-2.871,-2.8708,-2.8688,-2.8693,-2.8761,-2.875,-2.8706,-2.87,-2.8707,-2.8746,-2.8766,-2.8772,-2.8881,-2.8776,-2.8781,-2.8784,-2.8787,-2.9089,-2.9094,0,0,0,0,0,0,-2.8631,-2.864,-2.8756,-2.8759,-2.866,-2.8695,-2.8699,-2.8731,-2.8749,-2.8747,-2.8711,-2.8703,-2.8758,-2.8765,-2.8774,-2.8915,-2.8782,-2.8787,-2.879,-2.9085,-2.909,-2.9095,0,0,0,0,0,0,-2.8628,-2.8643,-2.8754,-2.8698,-2.871,-2.8702,-2.8738,-2.8734,-2.8754,-2.8752,-2.875,-2.8733,-2.8755,-2.8765,-2.8851,-2.8915,-2.879,-2.8795,-2.908,-2.9087,-2.9093,-2.9198,0,0,0,0,0,0,-2.8624,-2.8642,-2.8686,-2.8699,-2.8714,-2.883,-2.8741,-2.8738,-2.8764,-2.8755,-2.8773,-2.8772,-2.8753,-2.8843,-2.8857,-2.8921,-2.88,-2.9074,-2.9083,-2.9091,-2.9188,-2.9207,-2.9223,0,0,0,0,0,-2.8619,-2.8713,-2.8689,-2.8703,-2.8769,-2.8834,-2.8842,-2.8819,-2.8769,-2.8814,-2.8814,-2.8771,-2.8906,-2.8853,-2.8868,-2.8934,-2.907,-2.908,-2.909,-2.918,-2.9203,-2.9223,0,0,0,0,0,0,-2.8707,-2.8714,-2.8687,-2.8788,-2.8812,-2.882,-2.8876,-2.8843,-2.8881,-2.8871,-2.884,-2.8845,-2.8938,-2.8944,-2.8885,-2.9051,-2.898,-2.8994,-2.9043,-2.9065,-2.9082,-2.9079,-2.8804,0,0,0,0,0,-2.8738,-2.879,-2.8794,-2.8883,-2.8896,-2.8885,-2.8912,-2.8892,-2.8915,-2.8924,-2.8929,-2.8953,-2.9001,-2.9033,-2.9077,-2.9189,-2.9193,-2.9243,-2.926,-2.9274,-2.9287,-2.9349,-2.9372,-2.9129,-2.9129,-2.9129,0,0,-2.8803,-2.8813,-2.8848,-2.8901,-2.8916,-2.8972,-2.8893,-2.8955,-2.8996,-2.8933,-2.9015,-2.9021,-2.9045,-2.9146,-2.919,-2.9154,-2.9355,-2.9287,-2.9299,-2.9303,-2.9362,-2.9385,-2.9405,-2.9136,-2.9135,-2.9134,0,0,-2.895,-2.8963,-2.9039,-2.9057,-2.9082,-2.9074,-2.9093,-2.9108,-2.9109,-2.9191,-2.9146,-2.9195,-2.9278,-2.9298,-2.9319,-2.9478,-2.9441,-2.9493,-2.9584,-2.9645,-2.9664,-2.9681,-2.9739,-2.976,-2.9505,-2.9505,-2.9505,0,-2.9028,-2.9109,-2.9083,-2.9149,-2.9174,-2.9121,-2.9199,-2.9218,-2.9256,-2.9275,-2.9235,-2.9339,-2.9352,-2.9457,-2.9496,-2.9515,-2.9536,-2.949,-2.9663,-2.968,-2.9695,-2.975,-2.9772,-2.9511,-2.9511,-2.951,-2.951,0,-2.9205,-2.9262,-2.9321,-2.9361,-2.9393,-2.9465,-2.945,-2.9486,-2.9464,-2.9461,-2.9547,-2.9561,-2.9608,-2.9631,-2.961,-2.9734,-2.9712,-2.9668,-2.9595,-2.9725,-2.9776,-2.9797,-2.952,-2.9518,-2.9516,-2.9515,0,0,-2.9407,-2.9433,-2.9455,-2.9473,-2.9498,-2.9542,-2.9613,-2.9659,-2.9691,-2.972,-2.9779,-2.9852,-2.9813,-2.9837,-2.9818,-2.9871,-2.9998,-2.9821,-2.9821,-2.9855,-3.0139,-3.0173,-3.0198,-2.9974,-2.9978,-2.9981,-3.0138,0,-2.9555,-2.9676,-2.9655,-2.9773,-2.9828,-2.9779,-2.9841,-2.9864,-2.9863,-2.991,-2.9909,-2.9962,-2.9905,-2.992,-2.997,-2.9972,-3.0055,-2.996,-3.003,-3.0033,-3.0026,-3.0224,-3.0259,-3.0406,-3.0157,-3.0161,-3.0163,0,-2.9742,-2.9779,-2.9903,-2.9922,-2.9944,-3.0,-3.0042,-3.0087,-3.0112,-3.0109,-3.0138,-3.0109,-3.0181,-3.0108,-3.0207,-3.0144,-3.0171,-3.0177,-3.0182,-3.0188,-3.0106,-3.0237,-3.0452,-3.0475,-3.0194,-3.0192,-3.0189,0,-2.988,-2.996,-3.0045,-3.0062,-3.0086,-3.0127,-3.0139,-3.016,-3.019,-3.0228,-3.0247,-3.0292,-3.0317,-3.0354,-3.0339,-3.0287,-3.0442,-3.0367,-3.0442,-3.0443,-3.0477,-3.0475,-3.0701,-3.0494,-3.0494,-3.0493,-3.0493,0,-3.0047,-3.0125,-3.0108,-3.016,-3.0247,-3.0223,-3.031,-3.0316,-3.0336,-3.039,-3.0351,-3.0402,-3.038,-3.043,-3.0419,-3.0505,-3.0516,-3.0516,-3.0512,-3.052,-3.052,-3.0538,-3.0527,-3.0499,-3.0498,-3.0497,-3.0496,0,-3.0215,-3.0206,-3.0296,-3.0312,-3.0318,-3.0381,-3.0395,-3.0445,-3.0443,-3.0511,-3.0526,-3.0523,-3.058,-3.0569,-3.0632,-3.0625,-3.0733,-3.0716,-3.0725,-3.0721,-3.0797,-3.0791,-3.1043,-3.1076,-3.0846,-3.0848,-3.085,0,-3.0322,-3.0381,-3.0404,-3.0438,-3.0453,-3.0507,-3.0538,-3.0518,-3.0552,-3.0588,-3.0634,-3.0688,-3.073,-3.0825,-3.0829,-3.0877,-3.0862,-3.0947,-3.0869,-3.0876,-3.0865,-3.0863,-3.0869,-3.0963,-3.0966,-3.0968,-3.0969,0,-3.0515,-3.0508,-3.0555,-3.0601,-3.0639,-3.0674,-3.0706,-3.0735,-3.0718,-3.0759,-3.0818,-3.0851,-3.0917,-3.0972,-3.1018,-3.1031,-3.0999,-3.0994,-3.1014,-3.1023,-3.1026,-3.1028,-3.0768,-3.0988,-3.0987,-3.0985,-3.0984,-3.0983,-3.0657,-3.0708,-3.0733,-3.0787,-3.0808,-3.0839,-3.0888,-3.0892,-3.0941,-3.0993,-3.0978,-3.1046,-3.1073,-3.1131,-3.115,-3.1203,-3.1172,-3.12,-3.1208,-3.1216,-3.1226,-3.1018,-3.1211,-3.1211,-3.121,-3.121,-3.1209,0,-3.0849,-3.0863,-3.0912,-3.0958,-3.1001,-3.0967,-3.1001,-3.1039,-3.1099,-3.1127,-3.117,-3.1239,-3.1293,-3.1302,-3.1354,-3.1395,-3.1381,-3.1409,-3.1406,-3.141,-3.125,-3.1228,-3.1419,-3.1419,-3.1419,-3.1419,-3.1419,-3.1419,-3.0954,-3.1039,-3.1036,-3.1133,-3.1147,-3.1213,-3.1236,-3.1265,-3.1287,-3.1366,-3.1411,-3.1416,-3.1437,-3.149,-3.1539,-3.154,-3.1562,-3.1596,-3.1592,-3.1442,-3.1421,-3.1401,-3.138,-3.16,-3.1601,-3.1748,-3.1749,-3.175]},{"header":{"parameterUnit":"m.s-1","parameterCategory":1,"la1":30.2991,"la2":30.254,"lo1":-89.0895,"lo2":-89.0444,"dy":0.0017,"dx":0.0017,"nx":28,"ny":28,"refTime":"2025-11-06T09:00:00:Z","depth":0,"parameterNumber":3,"parameterNumberName":"V-component_of_WINDS"},"data":[0,0,0,0,0,0,0,0,0,0,0,0,0,0,0,0,0,0,0,0,0,0,0,0,0,0,0,0,0,0,0,0,0,0,0,0,0,0,0,0,0,0,0,0,0,0,0,0,0,0,0,0,0,0,0,0,0,0,2.8744,2.8744,0,2.8741,2.8741,2.8741,2.8672,2.8671,2.8669,2.8667,2.8663,2.8664,2.8666,0,0,0,0,0,0,0,0,0,0,0,0,0,2.8692,2.8694,2.8744,2.8744,2.8744,2.8741,2.8741,2.8741,2.8673,2.8671,2.8668,2.8666,2.8662,2.8664,2.8666,0,0,0,0,0,0,0,0,0,0,0,0,0,2.8705,2.8694,2.8744,2.871,2.8707,2.8741,2.8741,2.8741,2.8673,2.867,2.8668,2.8665,2.8662,2.8664,2.8666,2.8733,0,0,2.8673,2.8674,0,0,0,0,0,0,0,0,2.8704,2.8706,2.8715,2.8712,2.8709,2.8704,2.8721,2.8738,2.8674,2.8686,2.8667,2.8664,2.8679,2.8679,2.8684,2.8732,2.8732,2.8673,2.8674,2.8675,2.8676,0,0,0,0,0,0,0,2.8703,2.8706,2.8743,2.8715,2.8712,2.8695,2.8694,2.8724,2.8697,2.8685,2.868,2.868,2.8676,2.8682,2.8684,2.8732,2.8673,2.8675,2.8676,2.8677,2.8837,2.884,0,0,0,0,0,0,2.8707,2.8706,2.8743,2.8743,2.87,2.8698,2.8697,2.8709,2.8696,2.8692,2.8683,2.8677,2.868,2.8681,2.8683,2.8762,2.8675,2.8678,2.8679,2.8834,2.8838,2.8841,0,0,0,0,0,0,2.8706,2.8711,2.8743,2.8723,2.8726,2.8702,2.8716,2.871,2.8716,2.8695,2.869,2.8694,2.8678,2.868,2.8721,2.8761,2.8679,2.8681,2.8831,2.8835,2.8839,2.8919,0,0,0,0,0,0,2.8705,2.8711,2.8736,2.8724,2.8727,2.8781,2.8718,2.8712,2.872,2.8713,2.8704,2.87,2.8676,2.8718,2.8724,2.8762,2.8682,2.8827,2.8833,2.8838,2.8913,2.8926,2.8936,0,0,0,0,0,2.8703,2.8758,2.8737,2.8742,2.8758,2.8784,2.8786,2.8757,2.8723,2.8748,2.8735,2.87,2.8756,2.8723,2.8729,2.8769,2.8824,2.8831,2.8837,2.8907,2.8923,2.8936,0,0,0,0,0,0,2.8773,2.8755,2.8733,2.8785,2.8787,2.8772,2.8802,2.8774,2.8785,2.8778,2.8742,2.8741,2.8788,2.8782,2.8746,2.8834,2.8784,2.8792,2.8836,2.885,2.8862,2.8862,2.8684,0,0,0,0,0,2.8795,2.8818,2.8801,2.8848,2.8851,2.8827,2.8837,2.8816,2.8815,2.8816,2.8805,2.8807,2.8825,2.8837,2.8852,2.8912,2.891,2.8942,2.8954,2.8964,2.8971,2.9004,2.9019,2.8862,2.8862,2.8862,0,0,2.8839,2.8833,2.8849,2.8862,2.8861,2.8886,2.8828,2.8856,2.8874,2.882,2.8858,2.8852,2.8851,2.8902,2.8924,2.8899,2.9014,2.8972,2.898,2.8982,2.9012,2.9027,2.904,2.8866,2.8866,2.8865,0,0,2.8933,2.893,2.8971,2.8971,2.8971,2.8955,2.8965,2.8956,2.8949,2.8988,2.8948,2.897,2.9001,2.9002,2.9007,2.9106,2.9074,2.9111,2.9173,2.9206,2.9218,2.9229,2.9265,2.9279,2.9119,2.9119,2.9119,0,2.8989,2.9025,2.8995,2.9026,2.9034,2.8988,2.9029,2.9031,2.9035,2.9042,2.9013,2.9053,2.9049,2.9101,2.9126,2.9131,2.9142,2.9112,2.9219,2.923,2.9239,2.9273,2.9287,2.9123,2.9123,2.9122,2.9122,0,2.9093,2.9119,2.9152,2.9159,2.917,2.9207,2.9183,2.9198,2.9176,2.9164,2.9205,2.9199,2.9213,2.9224,2.9202,2.9274,2.9258,2.9225,2.9175,2.9259,2.9291,2.9304,2.913,2.9128,2.9127,2.9126,0,0,2.9229,2.9222,2.9234,2.9238,2.9235,2.9255,2.929,2.9304,2.9319,2.9324,2.9353,2.9382,2.9352,2.9358,2.9336,2.9365,2.9445,2.9328,2.9328,2.9351,2.9525,2.9551,2.9566,2.9424,2.9427,2.9429,2.9526,0,2.9321,2.9381,2.9356,2.9418,2.9443,2.94,2.9431,2.9433,2.9423,2.9442,2.9431,2.9453,2.9411,2.9414,2.9441,2.943,2.948,2.9422,2.9451,2.9453,2.9453,2.9583,2.9609,2.9701,2.9538,2.954,2.9541,0,2.9435,2.9447,2.9512,2.9508,2.9517,2.9545,2.9558,2.9577,2.9579,2.957,2.9579,2.9551,2.9586,2.9536,2.9584,2.9546,2.9556,2.9553,2.9556,2.9557,2.9502,2.9589,2.9729,2.9744,2.956,2.9559,2.9557,0,2.9529,2.9562,2.9605,2.961,2.9605,2.9626,2.9625,2.9625,2.9636,2.9648,2.9655,2.967,2.9678,2.9691,2.9669,2.9634,2.972,2.9668,2.9714,2.9715,2.9734,2.9733,2.9879,2.974,2.974,2.974,2.974,0,2.9634,2.9676,2.9648,2.9675,2.9721,2.9693,2.9739,2.9733,2.9734,2.976,2.9724,2.9748,2.9717,2.9739,2.9722,2.9765,2.9769,2.9763,2.9758,2.9766,2.9767,2.9773,2.9766,2.9744,2.9743,2.9742,2.9741,0,2.9747,2.973,2.9775,2.9768,2.9767,2.9802,2.9796,2.9821,2.9809,2.9842,2.9848,2.983,2.9854,2.9834,2.9856,2.9845,2.9903,2.9888,2.9903,2.9899,2.9946,2.9943,3.0101,3.0121,2.9969,2.9971,2.9972,0,2.9815,2.9847,2.9844,2.986,2.9862,2.9886,2.9898,2.9872,2.9887,2.9893,2.9918,2.9939,2.9955,2.9995,2.9984,3.0002,2.9988,3.0043,2.999,2.9999,2.999,2.9989,2.9993,3.0053,3.0055,3.0057,3.0058,0,2.9939,2.993,2.9949,2.9967,2.9983,2.9995,3.0004,3.0018,2.9992,3.001,3.0035,3.0048,3.0072,3.0094,3.0109,3.0108,3.0079,3.0075,3.0086,3.0095,3.0103,3.0101,2.9932,3.0071,3.0069,3.0069,3.0068,3.0067,3.0032,3.0059,3.0062,3.0086,3.0091,3.0101,3.0125,3.0117,3.0138,3.0157,3.014,3.0171,3.0175,3.0191,3.0194,3.0218,3.0195,3.0212,3.0216,3.0221,3.0229,3.0099,3.022,3.022,3.022,3.0219,3.0219,0,3.0154,3.0155,3.0177,3.0193,3.0212,3.0185,3.0194,3.0212,3.0239,3.0245,3.0263,3.0293,3.0315,3.0306,3.0326,3.0346,3.0334,3.0353,3.0351,3.0352,3.0247,3.0236,3.0363,3.0363,3.0362,3.0362,3.0362,3.0362,3.022,3.0266,3.0257,3.0305,3.0305,3.0336,3.0344,3.0354,3.0359,3.0394,3.0413,3.0408,3.0409,3.0428,3.0448,3.0445,3.0454,3.0478,3.047,3.0373,3.0358,3.0345,3.0334,3.048,3.048,3.0572,3.0573,3.0574]}]]